AO-07 1 07530U 74089B 17194.43253078 -.00000032 00000-0 75190-4 0 9999 2 07530 101.6321 162.6020 0011590 272.1904 240.0668 12.53627717951911 UO-11 1 14781U 84021B 17194.55101725 .00000074 00000-0 15370-4 0 9995 2 14781 097.6951 239.2925 0009988 110.5134 249.7153 14.82908600773254 LO-19 1 20442U 90005G 17194.40032017 .00000009 00000-0 19402-4 0 9994 2 20442 098.5762 130.6495 0012950 072.0201 288.2393 14.32864091435317 HUBBLE 1 20580U 90037B 17194.42154016 .00000412 00000-0 14376-4 0 9991 2 20580 028.4684 194.1666 0003012 095.8133 053.8204 15.08796437294161 MET-2/21 1 22782U 93055A 17194.55146953 .00000016 00000-0 84383-6 0 9992 2 22782 082.5489 002.6602 0022331 000.5675 030.6535 13.83800792205076 AO-27 1 22825U 93061C 17194.43131217 -.00000009 00000-0 14255-4 0 9993 2 22825 098.8141 160.3383 0007291 253.3645 106.6737 14.30000266240887 IO-26 1 22826U 93061D 17194.45633952 .00000003 00000-0 18804-4 0 9996 2 22826 098.8083 160.4424 0007872 242.3702 117.6681 14.30329288241088 FO-29 1 24278U 96046B 17194.63558010 -.00000048 00000-0 -92658-5 0 9997 2 24278 098.5599 074.3715 0349282 268.8861 087.2251 13.53077026032200 NOAA-15 1 25338U 98030A 17194.60105062 .00000056 00000-0 42515-4 0 9995 2 25338 098.7812 205.5639 0011553 126.4760 233.7485 14.25805402996501 GO-32 1 25397U 98043D 17194.41048381 -.00000008 00000-0 15227-4 0 9991 2 25397 098.6109 136.1961 0000398 352.2869 007.8303 14.23624693987525 ISS 1 25544U 98067A 17194.54526689 .00001934 00000-0 36440-4 0 9995 2 25544 051.6424 266.9410 0005615 031.0922 061.5291 15.54162338065852 NO-44 1 26931U 01043C 17194.53677130 -.00000041 00000-0 16196-4 0 9996 2 26931 067.0514 023.2108 0007505 261.6532 098.3718 14.30466224824040 SO-50 1 27607U 02058C 17194.57476465 .00000005 00000-0 21064-4 0 9995 2 27607 064.5558 044.9269 0029793 082.8555 277.5933 14.75338732782875 CO-55 1 27844U 03031E 17194.46057677 .00000039 00000-0 37238-4 0 9995 2 27844 098.6889 203.0845 0008486 272.3623 087.6583 14.22046619728018 CO-57 1 27848U 03031J 17194.46747270 .00000026 00000-0 31671-4 0 9995 2 27848 098.6982 203.3612 0008436 282.9903 077.0333 14.21660298727901 RS-22 1 27939U 03042A 17194.58072025 .00000075 00000-0 21830-4 0 9990 2 27939 097.9428 338.4750 0013967 138.1893 287.9333 14.66577208737042 NOAA-18 1 28654U 05018A 17194.54995596 -.00000006 00000-0 22163-4 0 9998 2 28654 099.1809 217.4069 0014312 002.6119 357.5124 14.12342040625889 CO-58 1 28895U 05043F 17194.42943913 .00000120 00000-0 31853-4 0 9998 2 28895 097.8676 355.5147 0018127 063.2136 297.0919 14.63409400624322 Falconsat-3 1 30776U 07006E 17194.55108709 .00002185 00000-0 69851-4 0 9992 2 30776 035.4359 259.3518 0003342 216.5058 143.5440 15.32384113572305 CO-65 1 32785U 08021C 17194.47045980 .00000220 00000-0 29621-4 0 9993 2 32785 097.5651 217.5418 0014757 082.5912 277.6981 14.87904373498736 AAUSAT2 1 32788U 08021F 17194.55739034 .00000413 00000-0 43947-4 0 9996 2 32788 097.5569 229.5469 0013125 048.2607 311.9734 14.93899609499511 DO-64 1 32789U 08021G 17194.35524949 .00001248 00000-0 92242-4 0 9991 2 32789 097.5581 252.0340 0013142 021.1858 338.9910 15.04947610500700 CO-66 1 32791U 08021J 17194.49774644 .00000401 00000-0 46671-4 0 9993 2 32791 097.5618 222.0138 0014950 068.7079 291.5734 14.90244086498981 RS-30 1 32953U 08025A 17194.52131403 .00000010 00000-0 -94481-6 0 9992 2 32953 082.5007 223.2779 0018051 224.7356 135.2268 12.43077961414693 PRISM 1 33493U 09002B 17194.52211983 .00000395 00000-0 41165-4 0 9994 2 33493 098.1664 078.0650 0015966 001.3766 358.7459 14.95706332459711 NOAA-19 1 33591U 09005A 17194.55471750 .00000099 00000-0 78975-4 0 9999 2 33591 099.0944 161.7572 0013593 193.9644 166.1152 14.12194045434110 TISAT-1 1 36799U 10035E 17194.12597072 .00000287 00000-0 35550-4 0 9997 2 36799 098.0650 317.3816 0011228 237.9961 122.0166 14.90415506379444 JUGNU 1 37839U 11058B 17194.57413155 .00000310 00000-0 23661-4 0 9994 2 37839 019.9616 290.4876 0019057 113.8163 005.7411 14.12586946297322 SRMSAT 1 37841U 11058D 17194.59792028 .00000299 00000-0 19041-4 0 9991 2 37841 019.9731 332.5683 0011932 011.7598 077.1888 14.10578220296929 AO-71 1 37854U 11061E 17194.39419537 .00001438 00000-0 84415-4 0 9991 2 37854 101.6995 081.3504 0167516 357.5176 002.5187 15.04165133310423 HRBE 1 37855U 11061F 17194.62195303 .00001912 00000-0 10736-3 0 9991 2 37855 101.7125 079.4815 0180690 003.4789 356.7632 15.03128150310299 ALMASAT-1 1 38078U 12006B 17194.62935879 .00008699 37255-5 10292-3 0 9992 2 38078 069.4404 061.1251 0310216 251.9954 104.7157 15.22660048288815 HORYU-2 1 38340U 12025D 17194.46976188 .00000189 00000-0 35954-4 0 9997 2 38340 098.3763 199.3171 0011036 202.2936 157.7793 14.75353308266756 RS-40 1 38735U 12041C 17194.61973997 .00000030 00000-0 14378-3 0 9996 2 38735 082.4780 307.7018 0015973 333.6603 026.3663 12.42574737224952 BEESAT-3 1 39134U 13015E 17194.24287088 .00001178 00000-0 66895-4 0 9996 2 39134 064.8645 142.3564 0036988 261.6671 098.0261 15.17860150233056 BEESAT-2 1 39136U 13015G 17194.24861632 .00000922 00000-0 58825-4 0 9991 2 39136 064.8691 153.3895 0033068 279.4386 080.3001 15.15135094233229 ZACUBE-1 1 39417U 13066B 17194.58260963 .00000211 00000-0 33222-4 0 9991 2 39417 097.6274 235.5438 0059333 182.1420 177.9548 14.80722255196689 TRITON-1 1 39427U 13066M 17194.50983496 .00000174 00000-0 36179-4 0 9999 2 39427 097.6371 208.1025 0112749 264.4057 094.4282 14.67471390194713 GOMX-1 1 39430U 13066Q 17194.44070604 .00000177 00000-0 41618-4 0 9991 2 39430 097.6654 191.4757 0150932 320.6324 038.3982 14.58881568193754 LO-74 1 39440U 13066AA 17194.55777259 .00000189 00000-0 33642-4 0 9995 2 39440 097.6271 224.4901 0079911 213.9192 145.6895 14.75463135194786 AO-73 1 39444U 13066AE 17194.54921164 .00000289 00000-0 42310-4 0 9997 2 39444 097.6290 236.5996 0058602 178.8794 181.2561 14.81458237194926 SPROUT 1 39770U 14029E 17194.48768489 .00000592 00000-0 73456-4 0 9993 2 39770 097.8748 293.6007 0007814 236.0722 123.9750 14.86266120170045 DUCHIFAT-1 1 40021U 14033M 17194.28939847 .00000392 00000-0 46641-4 0 9999 2 40021 097.9173 107.4924 0012109 210.0305 150.0219 14.89909797166482 NANOSATCBR1 1 40024U 14033Q 17194.23611989 .00000379 00000-0 45999-4 0 9991 2 40024 097.9132 106.2858 0011388 211.3620 148.6918 14.89232487165905 EO-79 1 40025U 14033R 17194.49847291 .00000280 00000-0 36215-4 0 9999 2 40025 097.9111 105.5508 0011589 213.6436 146.4046 14.88433762165894 DTUSAT-2 1 40030U 14033W 17194.24138192 .00000256 00000-0 33940-4 0 9996 2 40030 097.9076 104.3809 0011145 208.3686 151.6925 14.88056306165818 EO-80 1 40032U 14033Y 17194.28474159 .00000262 00000-0 34599-4 0 9996 2 40032 097.9084 104.4303 0011073 208.6161 151.4449 14.87991415165806 ANTELSAT 1 40034U 14033AA 17194.62791215 .00000192 00000-0 36458-4 0 9999 2 40034 097.8559 077.7372 0058238 206.7129 153.1077 14.73709506164289 VELOX-1 1 40057U 14034E 17194.51324153 .00000241 00000-0 41738-4 0 9998 2 40057 098.1908 295.1284 0010325 341.4920 018.5915 14.77138251163646 DAURIA DX 1 1 40071U 14037C 17194.54797879 .00000081 00000-0 17926-4 0 9993 2 40071 098.3409 306.6654 0008037 337.0525 023.0328 14.81024567162870 UKUBE-1 1 40074U 14037F 17194.46292112 .00000250 00000-0 37480-4 0 9992 2 40074 098.3507 310.5642 0004318 343.7910 016.3163 14.83515106163074 HODOYOSHI-1 1 40299U 14070B 17194.47789433 .00000757 00000-0 35869-4 0 9997 2 40299 097.4036 276.8190 0013571 007.9163 048.3126 15.22291538148949 CHUBUSAT-1 1 40300U 14070C 17194.54329582 .00000867 00000-0 42136-4 0 9990 2 40300 097.3957 273.9549 0021017 014.4296 099.8585 15.20896199148798 QSAT-EOS 1 40301U 14070D 17194.54496885 .00001723 00000-0 74967-4 0 9991 2 40301 097.3894 274.0816 0027992 008.5969 106.2575 15.23273685148847 FIREBIRD FU3 1 40377U 15003B 17194.48752339 .00001487 00000-0 67439-4 0 9996 2 40377 099.1228 023.6921 0134938 275.3122 083.2721 15.15433985134990 FIREBIRD FU4 1 40378U 15003C 17194.47937713 .00001459 00000-0 66201-4 0 9992 2 40378 099.1231 023.7215 0135132 275.2492 083.3328 15.15455208134994 GRIFEX 1 40379U 15003D 17194.57262538 .00001110 00000-0 54446-4 0 9992 2 40379 099.1252 021.5015 0141007 282.8870 075.6637 15.12998892134865 NO-84 1 40654U 15025D 17194.18427061 .00010293 00000-0 19384-3 0 00201 2 40654 054.9956 120.4185 0177972 332.1844 026.9672 15.33795266003707 NO-83 1 40655U 15025E 17194.24144662 .00016803 00000-0 25233-3 0 00249 2 40655 054.9811 094.0146 0146304 347.7886 011.9611 15.43684728003702 DEORBITSAIL 1 40719U 15032E 17194.62705251 .00000386 00000-0 63308-4 0 9993 2 40719 097.9776 088.0509 0017999 060.2492 300.0506 14.76078369108224 NUDT-PHONESAT 1 40900U 15049B 17194.58019313 .00002078 00000-0 10089-3 0 9992 2 40900 097.4424 202.1283 0015488 129.0202 231.2415 15.19486816100463 XW-2A 1 40903U 15049E 17194.52299595 .00001963 00000-0 53177-4 0 9999 2 40903 097.4198 220.5501 0015284 164.4176 195.7543 15.38827038101696 XW-2C 1 40906U 15049H 17194.46996813 .00000683 00000-0 40477-4 0 9999 2 40906 097.4546 199.4348 0016732 120.5070 239.7817 15.14565401100211 XW-2D 1 40907U 15049J 17194.51762737 .00000752 00000-0 44058-4 0 9998 2 40907 097.4516 199.2374 0016138 118.5370 241.7489 15.14671368100225 LILACSAT-2 1 40908U 15049K 17194.60731175 .00000384 00000-0 25258-4 0 9993 2 40908 097.4618 199.0766 0017683 117.1364 243.1673 15.13136450100167 XW-2F 1 40910U 15049M 17194.57054070 .00001112 00000-0 61898-4 0 9994 2 40910 097.4535 200.0149 0017015 116.2322 244.0662 15.15565950100272 XW-2B 1 40911U 15049N 17194.59044382 .00000731 00000-0 43014-4 0 9998 2 40911 097.4558 199.6982 0016034 118.6315 241.6531 15.14632962100134 DCBB 1 40912U 15049P 17194.52816990 .00001300 00000-0 67685-4 0 9997 2 40912 097.4500 201.8883 0017438 108.8322 350.2729 15.17670725100280 TW-1C 1 40926U 15051B 17194.46849608 .00007147 00000-0 16358-3 0 9995 2 40926 097.2277 233.8276 0013533 076.3196 031.5626 15.43008737100973 TW-1A 1 40928U 15051D 17194.53690073 .00003478 00000-0 10036-3 0 9995 2 40928 097.2251 229.8792 0014460 101.4636 003.2730 15.36254591100744 IO-86 1 40931U 15052B 17194.38507523 .00000734 00000-0 13212-4 0 9992 2 40931 005.9986 045.9382 0013180 258.7057 101.1598 14.76533749096845 GomX-3 1 40949U 98067HA 16292.18357804 .08527750 12374-4 77882-3 0 9992 2 40949 51.6055 106.7696 0006699 286.1344 73.8944 16.38002265 59645 LQSat 1 40958U 15057A 17194.53731164 .00000032 00000-0 12791-4 0 9995 2 40958 097.9773 269.3950 0018002 346.4556 013.6170 14.72971796094990 AO-85 1 40967U 15058D 17194.26498480 .00000015 00000-0 21250-4 0 00214 2 40967 064.7767 139.7745 0173197 067.8083 294.1361 14.75440522003644 ATHENOXAT-1 1 41168U 15077C 17194.59524654 .00001928 00000-0 71482-4 0 9998 2 41168 014.9902 336.5108 0012735 021.7410 052.8541 15.11635550087042 ChubuSat-2 1 41338U 16012B 17194.50865293 .00000330 00000-0 19195-4 0 9994 2 41338 031.0040 305.0915 0014074 319.9427 040.0170 14.99755748076940 ChubuSat-3 1 41339U 16012C 17194.49982108 .00000306 00000-0 17201-4 0 9997 2 41339 031.0123 304.2494 0013954 325.6662 034.3083 14.99959989076927 Horyu-4 1 41340U 16012D 17194.59503641 .00000493 00000-0 31312-4 0 9997 2 41340 031.0059 300.9581 0014388 335.9960 024.0004 15.00617921076989 OUFTI-1 1 41458U 16025C 17194.53808747 .00000580 00000-0 35494-4 0 9992 2 41458 098.1794 233.6263 0175038 201.2821 158.1072 15.03214872066545 e-st@r-II 1 41459U 16025D 17194.56174149 .00000757 00000-0 45118-4 0 9998 2 41459 098.1861 233.6008 0174361 201.1437 158.2523 15.03074411066532 AAUSAT4 1 41460U 16025E 17194.54356011 .00000943 00000-0 54969-4 0 9999 2 41460 098.1748 233.6964 0166991 199.5023 159.9765 15.03966673066558 MinXSS 1 41474U 98067HU 17125.52237589 .05724416 12300-4 86147-3 0 9995 2 41474 051.6449 208.6967 0008167 329.0747 030.9230 16.33400422055623 CADRE 1 41475U 98067HV 17003.74787607 .12518598 12537-4 55989-3 0 9998 2 41475 51.6110 110.0165 0004040 312.3134 47.7551 16.43344525 36494 NODES 1 1 41477U 98067HX 17194.19325113 .00061279 00000-0 24766-3 0 9993 2 41477 051.6246 227.6602 0002443 005.8133 354.2898 15.85724116066198 NODES 2 1 41478U 98067HY 17194.49763386 .00057332 00000-0 23973-3 0 9999 2 41478 051.6286 226.7327 0002408 009.7645 350.3405 15.85043722066232 LO-87 1 41557U 16033B 17194.22440262 .00001240 00000-0 49386-4 0 9990 2 41557 097.4626 273.7417 0012576 276.3623 083.6184 15.27110578062408 NuSat2 1 41558U 16033C 17194.52185655 .00001332 00000-0 53118-4 0 9996 2 41558 097.4654 274.0971 0011951 273.9332 086.0540 15.26945720062446 Lapan A3 1 41603U 16040E 17194.45986977 .00000116 00000-0 87198-5 0 9998 2 41603 097.4594 256.1289 0013404 350.2595 135.2770 15.19363294058649 Swayam 1 41607U 16040J 17193.13258646 .00001604 00000-0 75666-4 0 9990 2 41607 097.4589 255.1647 0014085 356.4397 003.6736 15.20855115058390 Pratham 1 41783U 16059A 17194.35848051 .00000051 00000-0 19363-4 0 9992 2 41783 098.1651 255.4595 0034987 079.4617 281.0524 14.62843633042429 AlSat 1N 1 41789U 16059G 17194.46205380 .00000060 00000-0 20644-4 0 9996 2 41789 098.1670 256.1148 0029781 073.2302 287.2170 14.64056057042453 ScatSat 1 41790U 16059H 17194.13885321 -.00000000 00000-0 10765-4 0 9999 2 41790 098.0628 243.0872 0012457 069.9373 290.3161 14.50112977042025 TY-1 1 41844U 16066D 17194.57657119 .00000998 00000-0 46524-4 0 9994 2 41844 097.4042 201.3315 0016994 141.1606 314.2895 15.22089866037359 CAS-2T 1 41845U 16066E 17194.42370055 .00000080 00000-0 22481-4 0 9998 2 41845 098.7755 210.6842 0366948 170.2269 190.6332 14.37762837035269 Pegasus-1 1 41846U 16066F 17194.56075804 .00000353 00000-0 64011-4 0 9996 2 41846 098.7806 210.5916 0369901 171.1734 189.6198 14.37035006035266 STARS-C 1 41895U 98067KR 17194.44018414 .00016995 00000-0 19109-3 0 9998 2 41895 051.6370 261.1860 0005153 042.3465 317.7927 15.62706574032096 Tancredo 1 1 41931U 98067KT 17194.41190757 .00039497 00000-0 32745-3 0 9990 2 41931 051.6352 257.2150 0007859 006.9734 353.1371 15.69775572027716 TO-89 1 41932U 98067KU 17194.60872455 .00009431 00000-0 12150-3 0 9997 2 41932 051.6400 262.3354 0006049 009.8499 350.2611 15.59782284027660 AOBA-V3LOX3 1 41935U 98067KX 17194.59335989 .00010613 00000-0 13403-3 0 9990 2 41935 051.6394 262.2286 0005598 012.9768 347.1368 15.60153421027762 OSNSAT 1 41939U 98067KZ 17194.58369195 .00022860 00000-0 23480-3 0 9992 2 41939 051.6367 259.1379 0007456 010.0770 350.0373 15.64783045027068 EO-88 1 42017U 17008BX 17194.45229266 .00001598 00000-0 70869-4 0 9995 2 42017 097.4935 255.8570 0008082 122.4664 237.7355 15.23049884022480 SOMP2 1 42700U 98067LH 17194.59823754 .00009712 00000-0 14218-3 0 9996 2 42700 051.6391 265.9962 0007094 058.0134 302.1546 15.56278726009054 HAVELSAT 1 42701U 98067LJ 17194.60062114 .00009586 00000-0 14105-3 0 9998 2 42701 051.6395 266.0134 0007050 059.1918 300.9766 15.56157268009042 Columbia 1 42702U 98067LK 17194.57854817 .00017980 00000-0 24680-3 0 9990 2 42702 051.6389 265.8644 0007507 047.4601 312.7023 15.57377201008975 PHOENIX 1 42706U 98067LP 17194.59964919 .00009580 00000-0 14066-3 0 9995 2 42706 051.6395 266.0087 0002397 034.5998 325.5149 15.56229885008961 X-CubeSat 1 42707U 98067LQ 17194.60040036 .00009403 00000-0 13831-3 0 9996 2 42707 051.6392 266.0121 0002455 033.2285 326.8861 15.56204822008956 qbee 1 42708U 98067LR 17194.60165305 .00009378 00000-0 13819-3 0 9991 2 42708 051.6394 266.0205 0002528 033.2686 326.8464 15.56160669008913 ZA-AeroSat 1 42713U 98067LU 17194.48162312 .00006987 00000-0 10593-3 0 9997 2 42713 051.6395 266.7183 0003027 003.2220 356.8790 15.55849384008606 LINK 1 42714U 98067LV 17194.48055844 .00010343 00000-0 15268-3 0 9994 2 42714 051.6391 266.7104 0003435 005.2159 354.8868 15.55980615008711 UPSat 1 42716U 98067LX 17194.60155794 .00010140 00000-0 14827-3 0 9990 2 42716 051.6393 266.0194 0005392 057.9343 302.2171 15.56262120008753 SpaceCube 1 42717U 98067LY 17194.60618259 .00009261 00000-0 13711-3 0 9994 2 42717 051.6394 266.0503 0005379 059.0424 301.1096 15.56044673007997 Hoopoe 1 42718U 98067LZ 17194.60432473 .00010447 00000-0 15315-3 0 9997 2 42718 051.6394 266.0383 0005384 057.5396 302.6116 15.56152129007996 Challenger 1 42721U 98067MA 17194.61295894 .00012358 00000-0 17971-3 0 9999 2 42721 051.6390 266.0935 0008768 040.6452 319.5193 15.56153865007691 NJUST-1 1 42722U 98067MB 17194.42967618 .00007140 00000-0 10909-3 0 9996 2 42722 051.6394 267.1195 0008384 043.9713 316.1943 15.55580031007667 UNSW-EC0 1 42723U 98067MC 17194.42622647 .00009214 00000-0 13750-3 0 9998 2 42723 051.6394 267.0973 0008451 041.6655 318.4979 15.55818596007648 DUTHsat 1 42724U 98067MD 17194.42387859 .00011334 00000-0 16630-3 0 9998 2 42724 051.6392 267.0815 0007725 042.1151 318.0432 15.56016823007567 LO-90 1 42725U 98067ME 17194.43170710 .00007385 00000-0 11281-3 0 9994 2 42725 051.6396 267.1336 0007436 045.7259 314.4342 15.55533176007562 nSIGHT1 1 42726U 98067MF 17194.43664946 .00004331 00000-0 69940-4 0 9998 2 42726 051.6401 267.1669 0007286 048.8642 311.2977 15.55198559007574 QBITO 1 42728U 98067MH 17194.42707906 .00008607 00000-0 12922-3 0 9990 2 42728 051.6397 267.1044 0004576 048.9408 311.1979 15.55769586007370 Aalto-2 1 42729U 98067MJ 17194.42693607 .00008590 00000-0 12897-3 0 9995 2 42729 051.6394 267.1030 0004585 049.1346 311.0042 15.55771130007386 SUSat 1 42730U 98067MK 17194.42793638 .00007950 00000-0 12002-3 0 9999 2 42730 051.6392 267.1091 0004634 048.2903 311.8484 15.55741744007372 i-INSPIRE II 1 42731U 98067ML 17194.42539376 .00009456 00000-0 14072-3 0 9999 2 42731 051.6386 267.0885 0008403 358.0074 002.0882 15.55855753007428 PolyITAN-2-SAU 1 42732U 98067MM 17194.42600090 .00008449 00000-0 12677-3 0 9992 2 42732 051.6383 267.0928 0008339 357.6636 002.4315 15.55798101007429 SNUSAT-1 1 42733U 98067MN 17194.42840590 .00007848 00000-0 11871-3 0 9991 2 42733 051.6384 267.1085 0008134 358.9149 001.1823 15.55693869007427 ExAlta-1 1 42734U 98067MP 17194.42550260 .00009534 00000-0 14173-3 0 9996 2 42734 051.6389 267.0904 0010147 019.5557 340.5822 15.55860215007376 Aoxiang-1 1 42735U 98067MQ 17194.42903042 .00007106 00000-0 10843-3 0 9990 2 42735 051.6394 267.1148 0009107 040.5688 319.5981 15.55622793008793 BeEagleSat 1 42736U 98067MR 17194.42934264 .00007421 00000-0 11283-3 0 9990 2 42736 051.6392 267.1172 0009008 039.7100 320.4549 15.55644026007487 Atlantis 1 42737U 98067MS 17194.47902805 .00016603 00000-0 23507-3 0 9996 2 42737 051.6389 266.6985 0009573 033.4361 326.7233 15.56587767007384 CAS-4B 1 42759U 17034B 17194.26976281 .00000185 00000-0 25144-4 0 9999 2 42759 043.0169 143.3639 0006830 158.6233 348.2237 15.08912900004240 CAS-4A 1 42761U 17034D 17194.26831640 .00000240 00000-0 28536-4 0 9991 2 42761 043.0175 143.3564 0007119 158.8664 347.5456 15.08986921004236 Object A 1 42765U 17036A 17194.57531741 .00013591 00000-0 10172-3 0 9999 2 42765 094.6126 248.6613 0025692 230.9299 128.9685 15.72218219003822 Object B 1 42766U 17036B 17194.55486480 .00001138 00000-0 56751-4 0 9995 2 42766 097.4486 254.0462 0016904 162.0073 198.1764 15.19447412003093 Object C 1 42767U 17036C 17194.50844439 .00000542 00000-0 29995-4 0 9991 2 42767 097.4476 253.9533 0013868 142.2878 217.9331 15.17905015003084 LituanicaSAT 2 1 42768U 17036D 17194.55363758 .00002048 00000-0 99228-4 0 9996 2 42768 097.4476 254.0466 0017002 165.3277 194.8455 15.19552770003106 Object E 1 42769U 17036E 17194.55277064 .00000706 00000-0 36324-4 0 9998 2 42769 097.4484 254.0487 0016318 163.4820 196.6950 15.19595208003025 InflateSail 1 42770U 17036F 17194.59030982 .00146470 00000-0 58441-2 0 9991 2 42770 097.4487 254.1490 0017514 191.5217 168.5622 15.24403397003045 Object G 1 42771U 17036G 17194.55134212 .00002034 00000-0 98137-4 0 9994 2 42771 097.4484 254.0503 0016003 164.1851 195.9887 15.19725411003044 Object H 1 42772U 17036H 17194.55057652 .00001824 00000-0 88191-4 0 9992 2 42772 097.4477 254.0512 0015782 163.6012 196.5737 15.19780689003042 Object J 1 42773U 17036J 17194.54992734 .00001629 00000-0 79006-4 0 9999 2 42773 097.4484 254.0521 0015536 163.5978 196.5762 15.19828140003041 Object K 1 42774U 17036K 17194.54956155 .00001844 00000-0 88983-4 0 9990 2 42774 097.4486 254.0534 0015407 163.6301 196.5435 15.19856179003035 Aalto 1 1 42775U 17036L 17194.61394470 .00000960 00000-0 47730-4 0 9998 2 42775 097.4485 254.1202 0014997 162.2453 197.9309 15.19948574003052 URSA MAIOR 1 42776U 17036M 17194.61345162 .00000962 00000-0 47766-4 0 9994 2 42776 097.4487 254.1215 0014876 162.5305 197.6444 15.19985061003053 Object N 1 42777U 17036N 17194.61015693 .00001736 00000-0 83046-4 0 9999 2 42777 097.4495 254.1288 0013869 166.4371 193.7239 15.20244548003048 Max Valier Sat 1 42778U 17036P 17194.60844158 .00001094 00000-0 53365-4 0 9993 2 42778 097.4500 254.1333 0013336 167.3794 192.7778 15.20360479003044 Object Q 1 42779U 17036Q 17194.60758314 .00002030 00000-0 96055-4 0 9996 2 42779 097.4487 254.1294 0013257 172.7847 187.3582 15.20438965003034 Object R 1 42780U 17036R 17194.60716757 .00001653 00000-0 78747-4 0 9991 2 42780 097.4485 254.1289 0013119 172.5895 187.5537 15.20465201003042 Object S 1 42781U 17036S 17194.60697259 .00002047 00000-0 96703-4 0 9997 2 42781 097.4479 254.1291 0013100 172.6567 187.4862 15.20485665003031 Object T 1 42782U 17036T 17194.60659274 .00002038 00000-0 96248-4 0 9997 2 42782 097.4481 254.1303 0012975 172.5289 187.6142 15.20513865003035 Object U 1 42783U 17036U 17194.60604004 .00001098 00000-0 53263-4 0 9994 2 42783 097.4484 254.1303 0012904 174.3971 185.7411 15.20538762003041 Pegasus 1 42784U 17036V 17194.60569909 .00001251 00000-0 60227-4 0 9998 2 42784 097.4485 254.1311 0012834 174.5629 185.5748 15.20567514003044 Object W 1 42785U 17036W 17194.60553075 .00001103 00000-0 53441-4 0 9992 2 42785 097.4486 254.1316 0012767 174.4161 185.7218 15.20576786003119 Object X 1 42786U 17036X 17194.60489068 .00001109 00000-0 53635-4 0 9994 2 42786 097.4485 254.1321 0012566 174.6678 185.4693 15.20624588003115 Object Y 1 42787U 17036Y 17194.60447818 .00001834 00000-0 86515-4 0 9990 2 42787 097.4485 254.1324 0012512 174.7286 185.4083 15.20672708002889 Object Z 1 42788U 17036Z 17194.60455903 .00001479 00000-0 70430-4 0 9999 2 42788 097.4484 254.1321 0012486 174.6136 185.5236 15.20656493003110 Object AA 1 42789U 17036AA 17194.60397453 .00001410 00000-0 67201-4 0 9992 2 42789 097.4483 254.1328 0012292 174.4902 185.6471 15.20698917003031 VZLUSAT 1 1 42790U 17036AB 17194.60307595 .00001665 00000-0 78632-4 0 9994 2 42790 097.4481 254.1330 0012041 174.7521 185.3843 15.20770047003031 Object AC 1 42791U 17036AC 17194.60252650 .00001321 00000-0 62977-4 0 9990 2 42791 097.4483 254.1345 0011871 175.1065 185.0288 15.20805333003024 Robusta 1B 1 42792U 17036AD 17194.60235955 .00001466 00000-0 69536-4 0 9998 2 42792 097.4481 254.1339 0011833 175.5015 184.6329 15.20820007003041 Object AE 1 42793U 17036AE 17194.59952162 .00001097 00000-0 52538-4 0 9997 2 42793 097.4480 254.1375 0010838 175.6678 184.4654 15.21024258003113 D-SAT 1 42794U 17036AF 17194.59848331 .00000880 00000-0 42665-4 0 9999 2 42794 097.4478 254.1381 0010091 172.2621 187.8772 15.21098529003031 Object AG 1 42795U 17036AG 17194.59819712 .00002006 00000-0 93225-4 0 9991 2 42795 097.4476 254.1372 0010020 171.7555 188.3847 15.21117986003030 Object AH 1 42796U 17036AH 17194.60400132 .00001408 00000-0 67145-4 0 9993 2 42796 097.4483 254.1326 0012302 174.3772 185.7603 15.20696098003040 Object U 1 42820U 98067MU 17194.58989850 .00007948 00000-0 12329-3 0 9998 2 42820 051.6394 266.6879 0003834 351.6795 008.4132 15.54990370000982 Object V 1 42821U 98067MV 17194.59002793 .00007800 00000-0 12129-3 0 9997 2 42821 051.6395 266.6891 0003894 353.6038 006.4903 15.54956460000960 Object W 1 42822U 98067MW 17194.59014869 .00007720 00000-0 12024-3 0 9990 2 42822 051.6395 266.6897 0003919 355.5464 004.5492 15.54927161000967 Object X 1 42823U 98067MX 17194.59034613 .00008078 00000-0 12564-3 0 9996 2 42823 051.6396 266.6923 0007652 007.3992 352.7110 15.54880689000963 Object Y 1 42824U 98067MY 17194.59054714 .00007972 00000-0 12431-3 0 9996 2 42824 051.6396 266.6935 0007469 008.5295 351.5822 15.54829573000964 /EX
